RH
16 17 18 19 20 20 19 19 19 20 20 20 20 22 24 22 20 28 49 34 35 35 35 40 62 59 62 53 57 56 41 31 26 27 25 23 27 29 31 32 32 33 32 31 31
12 11 11 13 14 17 19 19 19 19 20 21 21 20 20 21 20 31 39 26 31 36 50 61 53 59 46 50 54 47 41 33 26 26 30 30 32 33 34 33 33 34 34 34 35
10 10 10 10 10 14 18 18 19 19 19 20 20 21 21 21 34 30 25 26 28 36 38 46 64 59 45 49 47 43 46 28 31 34 37 38 39 38 36 38 34 34 35 34 34
10 9 9 10 9 8 13 14 13 16 17 19 22 22 21 22 25 33 25 26 28 36 45 66 57 45 41 40 41 51 37 37 38 39 40 41 42 41 40 37 35 36 37 38 38
9 9 9 9 9 9 8 8 11 10 10 17 21 25 25 48 30 25 21 29 29 36 66 60 50 47 41 37 40 46 41 39 41 43 44 44 44 43 41 38 36 35 36 37 40
8 9 8 8 8 8 8 7 7 7 8 13 21 26 34 36 25 20 28 34 36 41 64 63 56 60 55 48 48 39 45 46 47 45 42 46 41 39 35 35 34 36 38 39 40
8 8 8 8 8 8 8 7 7 6 6 10 16 28 52 35 29 23 34 42 41 58 57 68 71 66 57 46 50 54 59 45 35 35 41 43 44 39 34 34 34 34 35 35 39
9 8 8 8 7 7 7 7 7 6 6 12 27 34 41 28 24 23 34 52 47 47 65 77 80 76 68 59 52 55 46 45 27 31 34 46 42 26 24 26 27 29 30 32 36
11 11 11 11 11 10 9 8 7 8 9 19 36 49 34 28 28 30 51 60 71 71 71 79 84 66 60 64 43 45 42 33 31 35 37 42 45 29 29 27 27 28 30 31 31
7 7 8 7 9 10 11 12 12 11 17 31 46 58 40 39 53 46 65 68 66 71 76 78 69 60 49 50 44 62 32 28 32 27 28 34 37 27 25 23 24 25 29 31 33
2 2 1 1 3 3 3 11 36 45 47 27 11 23 23 49 40 66 64 70 66 60 48 62 61 53 32 25 24 28 33 33 28 25 41 34 34 29 25 23 23 25 27 30 31
1 1 1 0 0 0 6 43 36 40 39 22 30 38 36 53 44 62 59 57 56 52 40 54 56 32 30 33 36 33 37 34 25 34 35 35 37 28 21 23 24 25 27 32 34
1 1 1 1 1 9 15 24 35 46 50 30 46 46 48 52 35 36 64 53 43 39 37 48 29 36 37 33 38 34 33 30 32 35 30 40 27 22 22 24 23 22 25 35 39
1 1 1 1 10 2 32 26 36 50 51 34 40 50 50 48 42 52 62 51 42 41 32 33 28 38 38 38 32 36 33 37 43 47 51 34 46 22 18 20 19 19 26 31 36
1 1 2 9 8 38 23 34 42 64 78 30 35 39 49 42 41 60 66 60 42 32 41 27 32 37 38 32 32 32 44 44 44 50 50 46 56 24 21 19 19 20 30 34 39
2 3 18 25 46 38 37 44 56 60 84 48 30 30 28 34 36 59 63 66 53 48 39 39 32 40 34 35 40 35 44 38 40 50 76 37 37 34 22 21 19 19 29 33 35
2 11 36 44 58 37 44 66 52 52 21 32 38 31 28 27 31 42 42 44 47 52 33 24 28 37 43 44 40 48 44 55 64 83 52 41 47 34 22 20 25 26 28 36 29
3 25 42 53 54 48 52 41 52 27 38 38 38 32 30 29 27 30 34 32 30 36 39 35 41 38 41 43 41 33 39 49 53 41 41 30 52 32 22 26 28 28 31 23 24
4 30 42 40 50 51 62 48 46 56 53 54 38 25 21 29 30 24 24 37 42 42 51 40 30 30 40 38 41 43 50 41 48 36 59 36 34 25 26 29 24 27 23 25 25
5 61 35 30 49 60 43 46 50 56 47 53 48 32 38 32 38 25 24 49 51 46 45 43 54 28 31 40 39 42 38 46 53 65 46 34 34 52 51 31 27 24 24 27 26
11 52 16 35 53 50 56 62 60 52 40 61 58 54 43 45 51 43 32 52 48 48 42 47 50 41 32 35 30 40 44 43 40 36 44 36 28 29 29 29 24 22 28 28 30
28 28 5 34 28 38 48 56 56 40 34 45 52 59 55 53 56 47 52 59 46 40 40 37 51 59 39 26 26 33 33 31 42 42 37 37 46 21 24 22 21 30 34 32 39
36 32 8 17 24 21 28 40 50 42 41 36 43 43 34 35 39 50 47 53 52 39 34 25 42 56 35 35 40 43 38 37 38 42 52 49 38 22 22 19 26 38 35 38 43
31 21 25 30 34 30 35 36 33 43 37 46 40 38 34 28 27 32 23 33 35 35 47 64 49 42 52 34 35 44 41 38 42 59 49 43 35 25 21 20 36 40 36 43 46
24 42 43 29 23 33 31 30 32 38 33 40 45 42 45 42 32 27 33 35 33 32 40 31 41 32 26 24 25 30 35 35 42 42 48 40 32 25 22 37 42 43 44 46 44
41 50 43 31 35 27 30 33 38 45 44 36 45 43 43 47 39 45 42 40 38 30 30 29 46 39 43 28 24 24 20 20 21 22 24 30 32 21 37 41 43 44 46 46 42
72 73 69 36 24 25 36 40 45 48 40 48 45 47 45 40 47 46 46 44 42 42 42 43 47 49 50 30 40 40 27 27 27 22 24 21 26 42 40 38 35 35 40 40 43
Wind_Speed
14 13 13 13 13 12 12 12 13 13 14 16 17 17 18 16 14 13 6 6 5 5 6 5 4 3 2 2 3 3 5 8 9 8 9 8 12 15 16 22 20 22 26 27 31
15 15 16 16 15 15 14 13 12 13 14 14 14 15 16 16 15 13 11 6 4 5 5 3 3 3 3 2 3 5 7 8 6 11 14 17 18 21 22 25 27 25 27 27 28
16 16 17 17 18 17 15 15 16 16 15 15 14 14 13 13 11 3 7 5 3 3 3 2 2 2 4 2 3 3 6 10 15 15 17 19 22 22 22 24 27 25 26 25 25
15 15 16 17 18 19 16 16 17 18 18 17 15 13 11 7 5 6 7 5 3 3 3 3 3 4 4 6 3 8 14 14 20 19 20 20 26 25 26 34 28 28 26 26 27
16 17 18 18 18 19 19 18 19 20 22 19 15 12 9 6 10 14 11 7 4 3 4 4 4 5 6 6 9 15 13 13 17 23 24 26 25 24 32 32 28 27 26 28 30
18 19 20 20 21 21 21 21 21 22 23 19 14 12 6 8 11 11 11 8 5 3 5 3 3 5 9 8 8 9 15 23 19 19 17 17 22 20 31 19 20 22 24 26 27
19 19 20 21 22 23 23 23 23 24 24 20 17 9 9 13 11 11 11 8 7 5 6 5 4 4 7 9 8 13 15 15 14 6 10 11 17 15 26 19 22 22 23 24 23
21 21 22 22 23 24 24 25 25 25 25 20 12 5 8 14 11 14 12 9 9 8 5 5 4 7 7 8 7 6 8 7 4 6 5 3 13 15 15 17 22 25 28 24 20
22 22 23 24 24 25 25 25 25 25 23 15 6 4 7 7 10 12 13 7 7 6 5 3 4 8 6 7 10 7 8 14 10 5 6 8 20 17 32 26 26 27 28 27 22
24 25 25 25 25 26 23 24 23 19 14 7 5 4 8 4 6 9 11 9 5 4 4 5 6 7 8 6 6 6 15 15 14 5 15 19 24 22 26 20 20 19 19 21 20
26 26 26 25 26 24 23 15 8 6 7 11 18 21 13 7 5 5 8 8 6 7 8 9 7 11 13 11 14 14 14 17 16 10 8 14 21 20 19 11 13 14 10 13 17
27 27 28 25 24 22 14 5 6 7 13 21 20 17 16 7 6 9 9 9 8 10 9 5 12 13 5 7 9 13 15 17 13 4 11 17 24 14 5 6 10 13 11 7 7
28 28 26 24 21 11 6 7 7 8 8 8 2 2 1 10 8 7 12 6 10 13 11 14 9 1 6 10 11 14 15 16 15 16 17 11 13 5 4 4 7 11 10 6 4
27 27 25 21 8 12 7 7 8 8 4 3 2 1 2 1 5 5 10 5 4 6 7 11 7 6 10 13 10 15 5 6 10 10 5 9 6 4 0 1 2 11 12 10 9
27 25 23 17 11 5 8 6 6 3 5 3 2 1 2 4 1 3 8 5 10 10 3 7 5 7 12 11 5 6 5 10 11 11 10 5 4 2 3 5 6 11 13 13 12
26 23 19 16 10 9 6 4 3 3 7 2 2 3 5 4 3 2 3 6 6 7 12 20 13 6 11 7 8 10 13 15 8 5 4 5 2 7 2 2 4 11 14 15 17
25 18 18 15 10 9 5 2 3 4 5 5 6 9 13 6 3 3 4 7 5 6 8 9 10 3 5 7 7 5 9 4 4 4 3 4 5 9 3 3 5 7 9 12 18
22 12 15 17 13 9 4 3 6 5 7 9 11 16 6 7 0 3 4 5 5 8 10 8 5 4 6 4 6 8 6 6 5 5 8 5 6 2 7 6 6 6 10 22 24
19 8 13 14 10 5 4 3 5 7 7 12 18 9 2 0 8 5 2 4 5 9 5 6 6 3 4 5 3 4 5 3 6 8 5 6 6 11 9 9 7 10 19 23 25
13 5 13 15 8 3 4 1 0 6 8 7 6 4 10 11 10 11 9 6 7 9 7 5 8 5 1 3 9 8 6 5 4 4 7 6 10 7 7 9 8 12 22 27 28
10 3 18 11 6 4 2 3 2 7 11 6 7 9 12 12 10 11 4 5 11 12 10 8 7 8 7 7 10 6 5 7 5 7 6 7 4 5 5 5 13 19 26 29 29
7 3 20 8 3 3 3 4 8 8 11 4 5 5 5 9 9 8 6 5 13 12 8 5 6 10 18 17 11 9 14 15 10 9 8 10 9 7 2 2 17 24 28 31 28
6 5 10 8 4 5 3 2 5 10 9 6 5 5 6 4 6 5 6 2 10 12 8 9 4 8 8 5 3 3 1 8 9 9 14 12 8 6 7 18 24 25 29 29 29
5 3 8 12 7 6 6 4 6 5 6 6 6 2 10 5 3 8 12 5 20 15 12 7 8 13 14 17 19 16 18 15 15 10 13 19 24 21 19 22 20 23 24 25 29
8 5 4 4 7 8 7 6 6 7 4 4 4 7 9 5 15 7 6 16 13 17 5 5 9 13 17 20 20 22 23 23 23 25 21 26 26 23 21 17 17 21 23 23 30
5 6 6 4 6 8 3 5 7 8 4 2 6 11 11 11 13 18 17 17 10 7 8 9 6 15 20 20 21 23 22 23 25 27 26 28 29 21 17 19 19 23 23 22 31
9 8 5 3 7 7 4 7 7 11 3 5 8 13 12 12 13 21 28 31 27 20 19 16 7 8 7 6 13 13 6 13 17 21 20 21 11 10 13 16 24 26 20 24 31
Wind_Direction
19 15 7 358 349 344 337 329 323 316 308 301 296 297 301 305 310 316 279 266 314 353 14 14 11 323 305 269 281 281 256 276 292 283 287 295 284 280 281 274 271 265 265 268 276
14 13 9 4 358 349 343 340 337 331 325 318 312 303 298 305 308 290 244 282 322 3 23 8 327 326 239 252 247 262 270 297 319 299 292 295 288 288 287 276 270 269 265 265 268
7 5 5 6 4 358 350 344 342 338 333 326 318 312 309 313 318 241 217 270 309 339 355 349 320 316 271 268 226 243 257 314 292 288 292 291 284 283 277 269 266 271 272 271 263
357 355 354 354 357 358 353 346 342 337 332 325 316 308 306 306 295 226 235 257 285 313 332 292 294 285 276 256 247 270 263 273 287 289 287 283 288 281 273 270 276 274 271 269 264
348 346 344 343 344 344 345 340 335 334 332 323 313 303 299 258 253 256 240 245 265 286 242 270 285 308 272 287 287 254 274 287 289 287 282 281 274 277 274 274 275 270 266 263 260
342 339 337 335 334 333 332 332 330 328 328 323 313 298 274 247 243 250 227 238 241 253 253 267 286 292 282 266 268 311 295 291 290 282 283 276 278 279 272 281 274 265 261 259 261
336 333 330 327 325 324 324 323 323 322 323 319 311 286 260 264 253 237 229 236 246 238 257 258 263 269 320 270 283 284 297 296 265 266 291 306 277 246 263 266 271 263 265 267 264
330 328 325 321 319 318 317 316 318 319 317 313 301 273 254 261 252 234 226 235 246 254 248 251 261 277 251 293 276 272 276 287 147 240 266 287 287 300 316 299 280 272 273 268 255
330 326 323 321 318 316 316 314 313 311 307 307 292 259 271 265 238 230 215 215 225 243 251 248 264 261 245 263 280 194 286 308 315 187 287 247 292 302 304 293 285 278 269 264 262
330 327 324 320 316 314 315 314 314 305 298 304 279 260 242 268 217 202 207 207 213 224 265 234 243 256 230 240 268 295 290 297 295 295 285 279 279 296 306 300 302 297 279 260 254
331 328 325 322 316 314 314 323 329 292 273 238 275 264 281 244 228 194 195 187 209 229 237 195 258 244 277 280 270 289 285 286 294 331 308 285 295 300 300 304 319 330 308 264 256
337 334 332 327 323 319 320 335 300 296 299 289 269 268 248 221 229 201 188 197 210 231 209 232 253 273 298 276 268 270 277 284 298 190 309 298 299 293 290 310 328 332 339 327 280
340 338 338 334 330 333 343 311 306 319 270 283 313 308 304 218 227 222 188 217 239 255 239 249 267 323 252 264 260 265 271 282 291 318 284 315 273 192 166 283 349 356 8 27 1
342 341 341 341 349 330 303 316 322 336 281 213 120 111 339 228 210 214 195 232 234 279 285 265 276 282 261 262 267 282 337 305 293 313 309 352 300 270 273 281 4 19 16 10 6
341 341 343 350 340 341 314 321 332 4 313 61 73 87 261 244 87 177 198 229 262 261 243 260 261 259 266 277 251 267 325 290 295 289 297 173 246 249 135 51 56 51 36 26 14
344 342 350 357 355 343 338 331 343 238 248 46 67 350 311 200 203 133 205 230 282 282 251 259 267 271 260 302 246 293 291 273 263 265 243 154 331 275 79 56 64 72 51 37 16
343 344 355 360 338 333 331 329 244 222 46 21 346 340 323 285 246 225 227 231 262 301 286 307 244 197 256 264 207 234 276 294 230 207 268 145 279 258 331 59 21 33 43 29 4
343 346 359 357 350 347 358 250 252 22 2 351 335 311 280 355 199 293 277 276 78 324 287 283 282 187 162 263 319 283 286 270 291 298 306 239 242 157 100 90 69 59 52 9 357
342 344 7 347 344 347 288 258 353 10 343 332 318 297 275 239 333 316 271 9 29 8 308 321 268 145 198 280 275 100 226 5 292 275 268 234 255 267 112 120 84 71 9 8 358
344 355 343 351 341 342 264 177 333 20 336 323 294 332 318 335 324 329 291 39 345 6 318 315 289 300 19 263 230 242 354 256 205 268 277 261 243 249 141 63 35 4 359 359 351
5 338 349 351 19 279 323 16 5 359 5 348 335 301 317 321 317 298 322 53 1 348 324 326 259 278 279 235 279 217 229 225 299 270 277 295 283 111 85 86 5 353 1 352 349
19 316 355 4 22 16 24 6 349 346 10 360 4 344 326 330 308 293 333 26 14 347 332 331 303 281 273 278 293 276 277 280 265 264 227 276 267 332 126 237 351 2 350 347 348
356 331 355 43 16 24 30 9 28 5 15 2 13 11 353 299 302 338 325 188 356 347 357 339 272 303 291 160 136 233 319 265 281 297 262 268 245 155 221 315 1 353 343 344 345
13 340 9 45 47 349 350 5 349 37 43 2 2 343 345 318 276 295 299 331 333 324 317 263 254 258 264 280 313 297 286 275 284 272 268 254 275 275 295 317 355 345 342 340 343
34 46 2 345 16 351 343 345 348 355 1 357 205 29 353 301 309 275 318 316 310 316 294 335 275 279 284 285 289 284 279 276 268 264 258 271 273 288 309 346 342 331 341 341 343
47 3 337 320 325 322 349 22 349 350 305 356 337 335 319 293 284 295 308 303 290 295 311 329 279 307 288 278 267 269 269 267 267 271 270 270 270 289 341 340 344 331 335 338 340
31 3 352 357 334 328 18 351 337 340 318 288 318 314 305 322 315 297 285 278 270 277 282 286 278 306 276 356 316 282 270 283 276 264 270 265 311 355 344 341 340 324 324 340 335